Superior, WI

12:18 PM CDT on August 31, 2016 (GMT -0500)
Bong

Weather History for KSUW - September, 2012

Change the Weather History Date:

Saturday, September 22, 2012

  Actual Average Record
Temperature  
Mean Temperature 45 °F -  
Max Temperature 53 °F 62 °F 80 °F (1958)
Min Temperature 37 °F 42 °F 25 °F (1974)
Degree Days  
Heating Degree Days 20    
Moisture  
Dew Point 34 °F    
Average Humidity 66    
Maximum Humidity 93    
Minimum Humidity 41    
Precipitation  
Precipitation 0.00 in - - ()
Sea Level Pressure  
Sea Level Pressure 30.07 in    
Wind  
Wind Speed 11 mph (NNW)    
Max Wind Speed 20 mph    
Max Gust Speed 29 mph    
Visibility 10 miles    
Events Rain    
Averages and records for this station are not official NWS values.
T = Trace of Precipitation, MM = Missing Value Source: NWS Daily Summary

Daily Weather History Graph

Daily Weather History Graph

Search for Another Location

Airport or City:

Trip Planner

Search our weather history database for the weather conditions in past years. The results will help you decide how hot, cold, wet, or windy it might be!

Date:

Astronomy

Sep. 22, 2012 Rise Set
Actual Time 6:55 AM CDT 7:05 PM CDT
Civil Twilight 6:25 AM CDT 7:35 PM CDT
Nautical Twilight 5:50 AM CDT 8:10 PM CDT
Astronomical Twilight 5:13 AM CDT 8:47 PM CDT
Moon 2:36 PM CDT (9/22) 11:49 PM CDT (9/22)
Length of Visible Light 13h 09m
Length of Day
12h 09m
Waxing Crescent, 49% of the Moon is Illuminated
Sep 22
Waxing Crescent
Sep 22
First Quarter
Sep 29
Full
Oct 8
Last Quarter
Oct 15
New

Hourly Weather History & Observations

Time (CDT) Temp. Windchill Dew Point Humidity Pressure Visibility Wind Dir Wind Speed Gust Speed Precip Events Conditions
12:15 AM 37.4 °F 28.9 °F 33.8 °F 87% 29.81 in 10.0 mi NW 13.8 mph 17.3 mph N/A   Light Drizzle
12:35 AM 37.4 °F 29.8 °F 33.8 °F 87% 29.81 in 10.0 mi NW 11.5 mph 20.7 mph N/A   Overcast
12:55 AM 37.4 °F 31.4 °F 33.8 °F 87% 29.82 in 10.0 mi NW 8.1 mph - N/A Rain Rain
1:15 AM 37.4 °F 29.3 °F 33.8 °F 87% 29.82 in 10.0 mi NW 12.7 mph 17.3 mph N/A Rain Rain
1:35 AM 37.4 °F 31.4 °F 33.8 °F 87% 29.83 in 10.0 mi WNW 8.1 mph - N/A   Light Drizzle
1:55 AM 37.4 °F 32.8 °F 33.8 °F 87% 29.84 in 10.0 mi NNW 5.8 mph - N/A   Overcast
2:15 AM 37.4 °F 30.8 °F 35.6 °F 93% 29.85 in 10.0 mi NNW 9.2 mph 16.1 mph N/A   Light Drizzle
2:35 AM 37.4 °F 29.3 °F 35.6 °F 93% 29.86 in 10.0 mi NNW 12.7 mph 18.4 mph N/A   Light Drizzle
2:55 AM 39.2 °F 31.2 °F 35.6 °F 87% 29.87 in 10.0 mi NNW 13.8 mph - N/A   Overcast
3:15 AM 39.2 °F 33.6 °F 35.6 °F 87% 29.88 in 10.0 mi NNW 8.1 mph - N/A Rain Rain
3:35 AM 39.2 °F 33.0 °F 37.4 °F 93% 29.89 in 7.0 mi NNW 9.2 mph 17.3 mph N/A   Drizzle
3:55 AM 41.0 °F 37.1 °F 37.4 °F 87% 29.90 in 10.0 mi NNW 5.8 mph - N/A   Overcast
4:15 AM 42.8 °F 38.0 °F 39.2 °F 87% 29.91 in 10.0 mi North 8.1 mph - N/A   Overcast
4:35 AM 44.6 °F 38.8 °F 39.2 °F 81% 29.92 in 10.0 mi North 11.5 mph - N/A   Overcast
4:55 AM 44.6 °F 39.2 °F 39.2 °F 81% 29.93 in 10.0 mi North 10.4 mph 20.7 mph N/A   Overcast
5:15 AM 46.4 °F 41.5 °F 39.2 °F 76% 29.95 in 10.0 mi North 10.4 mph 20.7 mph N/A   Overcast
5:35 AM 44.6 °F 39.2 °F 39.2 °F 81% 29.96 in 10.0 mi North 10.4 mph 19.6 mph N/A   Overcast
5:55 AM 44.6 °F 40.7 °F 39.2 °F 81% 29.98 in 10.0 mi NNE 6.9 mph 16.1 mph N/A   Overcast
6:15 AM 44.6 °F 38.8 °F 37.4 °F 76% 29.99 in 10.0 mi North 11.5 mph 16.1 mph N/A   Overcast
6:35 AM 44.6 °F 39.2 °F 37.4 °F 76% 30.01 in 10.0 mi North 10.4 mph 17.3 mph N/A   Overcast
6:55 AM 44.6 °F 39.7 °F 37.4 °F 76% 30.02 in 10.0 mi North 9.2 mph 17.3 mph N/A   Overcast
7:15 AM 44.6 °F 38.4 °F 37.4 °F 76% 30.03 in 10.0 mi North 12.7 mph 21.9 mph N/A   Overcast
7:35 AM 44.6 °F 38.1 °F 37.4 °F 76% 30.05 in 10.0 mi North 13.8 mph 19.6 mph N/A   Overcast
7:55 AM 44.6 °F 38.4 °F 35.6 °F 71% 30.06 in 10.0 mi North 12.7 mph - N/A   Scattered Clouds
8:15 AM 44.6 °F 38.8 °F 35.6 °F 71% 30.08 in 10.0 mi North 11.5 mph 17.3 mph N/A   Clear
8:35 AM 46.4 °F 41.1 °F 35.6 °F 66% 30.09 in 10.0 mi North 11.5 mph - N/A   Clear
8:55 AM 46.4 °F 41.1 °F 37.4 °F 71% 30.10 in 10.0 mi North 11.5 mph - N/A   Mostly Cloudy
9:15 AM 46.4 °F 41.5 °F 35.6 °F 66% 30.11 in 10.0 mi North 10.4 mph 17.3 mph N/A   Overcast
9:55 AM 44.6 °F 39.7 °F 35.6 °F 71% 30.12 in 10.0 mi NNW 9.2 mph 17.3 mph N/A   Overcast
10:15 AM 46.4 °F 41.5 °F 35.6 °F 66% 30.13 in 10.0 mi NNW 10.4 mph 19.6 mph N/A   Overcast
10:35 AM 48.2 °F - 35.6 °F 62% 30.13 in 10.0 mi NNW 6.9 mph - N/A   Overcast
10:55 AM 48.2 °F - 35.6 °F 62% 30.13 in 10.0 mi North 8.1 mph - N/A   Overcast
11:15 AM 48.2 °F - 33.8 °F 58% 30.13 in 10.0 mi NW 5.8 mph - N/A   Overcast
11:35 AM 48.2 °F - 35.6 °F 62% 30.13 in 10.0 mi WNW 8.1 mph - N/A   Overcast
11:55 AM 48.2 °F - 35.6 °F 62% 30.13 in 10.0 mi NNW 10.4 mph - N/A   Mostly Cloudy
12:15 PM 48.2 °F - 35.6 °F 62% 30.13 in 10.0 mi NW 12.7 mph 21.9 mph N/A   Mostly Cloudy
12:35 PM 50.0 °F - 35.6 °F 58% 30.13 in 10.0 mi WNW 19.6 mph 26.5 mph N/A   Mostly Cloudy
12:55 PM 51.8 °F - 35.6 °F 54% 30.13 in 10.0 mi WNW 10.4 mph - N/A   Mostly Cloudy
1:15 PM 48.2 °F - 35.6 °F 62% 30.13 in 10.0 mi NW 17.3 mph 28.8 mph N/A   Mostly Cloudy
1:35 PM 50.0 °F - 35.6 °F 58% 30.13 in 10.0 mi NW 16.1 mph 20.7 mph N/A   Mostly Cloudy
1:55 PM 51.8 °F - 32.0 °F 47% 30.13 in 10.0 mi NNW 19.6 mph 23.0 mph N/A   Scattered Clouds
2:15 PM 53.6 °F - 32.0 °F 44% 30.13 in 10.0 mi NW 15.0 mph 23.0 mph N/A   Scattered Clouds
2:35 PM 53.6 °F - 32.0 °F 44% 30.13 in 10.0 mi NW 18.4 mph 25.3 mph N/A   Scattered Clouds
2:55 PM 51.8 °F - 32.0 °F 47% 30.13 in 10.0 mi NW 17.3 mph 24.2 mph N/A   Mostly Cloudy
3:15 PM 53.6 °F - 32.0 °F 44% 30.13 in 10.0 mi NNW 17.3 mph 23.0 mph N/A   Scattered Clouds
3:35 PM 51.8 °F - 32.0 °F 47% 30.13 in 10.0 mi NW 15.0 mph - N/A   Scattered Clouds
3:55 PM 53.6 °F - 30.2 °F 41% 30.13 in 10.0 mi NW 11.5 mph 21.9 mph N/A   Clear
4:15 PM 51.8 °F - 30.2 °F 44% 30.13 in 10.0 mi NNW 15.0 mph 18.4 mph N/A   Mostly Cloudy
4:35 PM 51.8 °F - 32.0 °F 47% 30.13 in 10.0 mi NW 16.1 mph 24.2 mph N/A   Scattered Clouds
4:55 PM 53.6 °F - 32.0 °F 44% 30.14 in 10.0 mi NW 10.4 mph - N/A   Scattered Clouds
5:15 PM 50.0 °F - 30.2 °F 47% 30.14 in 10.0 mi NW 12.7 mph 19.6 mph N/A   Scattered Clouds
5:35 PM 51.8 °F - 32.0 °F 47% 30.15 in 10.0 mi NW 11.5 mph 18.4 mph N/A   Scattered Clouds
5:55 PM 51.8 °F - 32.0 °F 47% 30.15 in 10.0 mi NNW 8.1 mph 16.1 mph N/A   Mostly Cloudy
6:15 PM 50.0 °F - 28.4 °F 43% 30.15 in 10.0 mi NNW 11.5 mph - N/A   Mostly Cloudy
6:35 PM 50.0 °F - 30.2 °F 47% 30.15 in 10.0 mi NNW 10.4 mph - N/A   Overcast
6:55 PM 48.2 °F - 30.2 °F 50% 30.16 in 10.0 mi NNW 8.1 mph 16.1 mph N/A   Overcast
7:15 PM 46.4 °F 43.5 °F 30.2 °F 53% 30.16 in 10.0 mi NNW 5.8 mph - N/A   Mostly Cloudy
7:35 PM 48.2 °F - 30.2 °F 50% 30.16 in 10.0 mi NNW 8.1 mph - N/A   Overcast
7:55 PM 46.4 °F 42.9 °F 30.2 °F 53% 30.16 in 10.0 mi NNW 6.9 mph - N/A   Mostly Cloudy
8:15 PM 46.4 °F 44.3 °F 30.2 °F 53% 30.16 in 10.0 mi NNW 4.6 mph - N/A   Overcast
8:35 PM 44.6 °F 43.1 °F 30.2 °F 57% 30.16 in 10.0 mi NW 3.5 mph - N/A   Mostly Cloudy
8:55 PM 42.8 °F 40.1 °F 30.2 °F 61% 30.17 in 10.0 mi NW 4.6 mph - N/A   Mostly Cloudy
9:15 PM 41.0 °F 38.0 °F 30.2 °F 65% 30.17 in 10.0 mi WNW 4.6 mph - N/A   Scattered Clouds
9:35 PM 39.2 °F 35.9 °F 30.2 °F 70% 30.17 in 10.0 mi WNW 4.6 mph - N/A   Scattered Clouds
9:55 PM 39.2 °F 34.2 °F 30.2 °F 70% 30.18 in 10.0 mi NW 6.9 mph - N/A   Scattered Clouds
10:15 PM 39.2 °F 35.9 °F 30.2 °F 70% 30.18 in 10.0 mi West 4.6 mph - N/A   Clear
10:35 PM 39.2 °F 35.9 °F 30.2 °F 70% 30.18 in 10.0 mi WNW 4.6 mph - N/A   Clear
10:55 PM 39.2 °F 37.0 °F 30.2 °F 70% 30.18 in 10.0 mi West 3.5 mph - N/A   Scattered Clouds
11:15 PM 37.4 °F 32.8 °F 28.4 °F 70% 30.18 in 10.0 mi WNW 5.8 mph - N/A   Clear
11:35 PM 37.4 °F 32.8 °F 30.2 °F 75% 30.18 in 10.0 mi WNW 5.8 mph - N/A   Clear
11:55 PM 41.0 °F 37.1 °F 30.2 °F 65% 30.18 in 10.0 mi WNW 5.8 mph - N/A   Mostly Cloudy